sat.trackr.live / text

‹ back to catalog

ONEWEB-0170

NORAD 48067 · 2021-025AB

PAYLOAD ACTIVE UNKNOWN

§ Identity

Operator
Country
UK
Launch date
2021-03-25
Launch site
VOSTO
Launch vehicle
Mass (kg)
RCS (m²)

Purposes: comms

External: N2YO · Heavens-Above · Gunter

§ Orbital elements

Epoch: 2026-09-19T22:07:42.033792Z

Period
109.63 min
Inclination
87.8921°
Eccentricity
0.0002142
Mean motion
13.13468964 rev/d
Perigee alt
1,208.1 km
Apogee alt
1,211.4 km
Semi-major
7,587.9 km
B*
-1.4480e-4
RAAN
301.3753°
Arg perigee
81.3317°
Mean anomaly
278.8054°
Rev number
26,598

§ Raw data

ONEWEB-01701 48067U 21025AB  26262.92201428 -.00000040  00000+0 -14480-3 0  99962 48067  87.8921 301.3753 0002142  81.3317 278.8054 13.13468964265985

JSON: /api/v1/satellites/48067 · /tle

For live sub-satellite position, see the globe view (requires WebGL).

§ Visibility from observer

Set your observer location to see the next 7 days of passes ≥ 10°. The values pass through the URL so the page stays shareable.

No JS? Fill the form by hand. The geolocation button needs JavaScript.